GRBBeta
1 60237U 24128C   26130.91713484  .00002522  00000-0  18156-3 0  9999
2 60237  61.9910 346.9978 0045504 126.9629 233.5644 15.06330418100655
Curium One
1 60242U 24128H   26131.14068698  .00005464  00000-0  32270-3 0  9992
2 60242  61.9799 336.9263 0045175 123.1924 237.3516 15.11910084100854
ROBUSTA-3A
1 60243U 24128J   26131.15129132  .00004784  00000-0  29043-3 0  9993
2 60243  61.9875 339.1574 0046325 120.7932 239.7735 15.11089418100824
CatSat
1 60246U 24125J   26130.65834471  .00032801  00000-0  48984-3 0  9992
2 60246  97.2134 342.7865 0021671 323.1152  36.8611 15.54702145101556
HYPERVIEW-1G (RS66S)
1 61772U 24199AP  26131.18910102  .00070537  00000-0  64140-3 0  9993
2 61772  97.2951   9.2799 0007750  68.0159 292.1925 15.67708392128865
AO-123
1 61781U 24199AY  26131.14701627  .00005061  00000-0  15024-3 0  9996
2 61781  97.3054   0.1577 0015895  83.3073 276.9979 15.35126490128247
JINJUSat 1B
1 63210U 25052A   26131.13283679  .00010563  00000-0  34056-3 0  9994
2 63210  97.4039  27.8649 0002743 176.6079 183.5182 15.32348291 64426
NUSHSAT 1
1 63211U 25052B   26131.16717502  .00012102  00000-0  36395-3 0  9994
2 63211  97.4020  28.3464 0002418 174.1836 185.9435 15.34531535 64469
TEVEL2-4
1 63213U 25052D   26131.19399235  .00011427  00000-0  35724-3 0  9992
2 63213  97.3944  27.5551 0001369 179.2477 180.8768 15.33315562 64444
TEVEL2-5
1 63214U 25052E   26130.94950516  .00010812  00000-0  33989-3 0  9998
2 63214  97.3942  27.2685 0001337 177.4534 182.6716 15.33154657 64402
TEVEL2-6
1 63215U 25052F   26130.69985694  .00010998  00000-0  34614-3 0  9997
2 63215  97.3944  27.0038 0001361 185.8938 174.2288 15.33112431 64363
TEVEL2-1
1 63217U 25052H   26131.17351758  .00010799  00000-0  34505-3 0  9999
2 63217  97.3915  27.1439 0000874 207.6246 152.4950 15.32634673 64429
TEVEL2-3
1 63218U 25052J   26131.16939257  .00010761  00000-0  34333-3 0  9993
2 63218  97.3918  27.1573 0000842 209.9970 150.1224 15.32682225 64421
TEVEL2-2
1 63219U 25052K   26131.17400360  .00011085  00000-0  35402-3 0  9991
2 63219  97.3917  27.1462 0000871 212.1904 147.9285 15.32641148 64423
TEVEL2-9
1 63237U 25052AD  26130.64737083  .00010342  00000-0  35029-3 0  9997
2 63237  97.3979  26.0735 0004018 277.0962  82.9822 15.30756771 64289
TEVEL2-7
1 63238U 25052AE  26131.20450175  .00009633  00000-0  32908-3 0  9999
2 63238  97.3983  26.5593 0004126 273.8598  86.2171 15.30500428 64360
TEVEL2-8
1 63239U 25052AF  26130.95081800  .00009476  00000-0  32399-3 0  9995
2 63239  97.3982  26.2849 0004099 276.5700  83.5075 15.30477477 64321
HYDRA-W
1 63490U 25052BL  26113.93882235  .05662091  24406-5  29537-2 0  9997
2 63490  97.3690  18.2798 0008685 203.5899 156.4993 16.20186780 62336
HADES-ICM (SO-125)
1 63492U 25052BN  26130.71186245  .00582006  13575-3  17880-2 0  9995
2 63492  97.3752  34.6178 0008453 168.0198 192.1279 15.91770935 64874
SPIRONE
1 66657U 25274H   26131.20400206  .00001421  00000-0  14060-3 0  9999
2 66657  97.7477  61.0302 0013275 132.2234 228.0115 14.93390226 24701
K-HERO
1 66660U 25274L   26130.75014592  .00001609  00000-0  15676-3 0  9993
2 66660  97.7484  60.7163 0015020 138.3573 221.8794 14.93816999 24644
SNUGLITE-III DURI
1 66661U 25274M   26130.80610814  .00001200  00000-0  11812-3 0  9994
2 66661  97.7479  60.7906 0015607 139.4574 220.7812 14.93870292 24654
SilverSat
1 66909U 98067XV  26113.44966717  .07226154  12288-4  11979-2 0  9998
2 66909  51.6027 190.0749 0007952 333.4666  26.5949 16.32457272 22308
SAKHACUBE-CHOLBON
1 67290U 25313AU  26130.68176839  .00006594  00000-0  27315-3 0  9993
2 67290  97.3936 206.2042 0010846 124.8732 235.3527 15.24193958 20269
RS95S (QMR-KWT-2)
1 67291U 25313AV  26131.15979301  .00009386  00000-0  37484-3 0  9992
2 67291  97.3937 206.7831 0010564 123.0824 237.1430 15.25307641 20341
Ten-Koh2
1 68261U 25241B   26131.02320169  .00004301  00000-0  19201-3 0  9997
2 68261  51.6530 136.4472 0006189  27.6825 332.4482 15.23411345  9246
JACK-002
1 68417U 26067B   26130.87978863  .00004513  00000-0  21937-3 0  9993
2 68417  97.4540  89.9518 0003823  70.3588 289.8059 15.18925136  6282
DISCO 2
1 68431U 26067R   26131.15543764  .00004682  00000-0  23006-3 0  9995
2 68431  97.4579  90.2163 0004201 108.4262 251.7429 15.18527090  6325
HADES-SA (SpinnyONE)
1 68446U 26067AG  26130.85561726  .00010054  00000-0  49990-3 0  9995
2 68446  97.4386  89.7549 0006654 183.6763 176.4423 15.17813078  6266
PARUS-6U1
1 68456U 26067AS  26130.86167129  .00003315  00000-0  17050-3 0  9990
2 68456  97.4528  89.8177 0005599 173.6121 186.5185 15.17124485  6272
SAL-E
1 68458U 26067AU  26131.12495887  .00004338  00000-0  22143-3 0  9992
2 68458  97.4453  90.0397 0005556 181.6692 178.4524 15.17227047  6314
FSI-SAT 2
1 68792U 26088A   26131.16059718  .00003319  00000-0  22821-3 0  9990
2 68792  97.5023 281.3688 0013603 230.4942 129.5084 15.06525503  2714
OrigamiSat 2
1 68795U 26088D   26131.14301078  .00002157  00000-0  14396-3 0  9997
2 68795  97.5033 281.3946 0015254 201.8928 158.1650 15.07988141  2714
ARICA 2
1 68796U 26088E   26131.20807513  .00002756  00000-0  18220-3 0  9995
2 68796  97.5018 281.4561 0015325 199.9200 160.1431 15.08113805  2720
WASEDA-SAT-ZERO-II
1 68797U 26088F   26131.14104507  .00003803  00000-0  24928-3 0  9998
2 68797  97.5017 281.3920 0015280 199.8384 160.2253 15.08201180  2716
MANGARO-II-Piscus
1 68798U 26088G   26131.13703227  .00002346  00000-0  15388-3 0  9993
2 68798  97.5024 281.3998 0018610 203.9200 156.1166 15.08499209  2712
IO-86
1 40931U          25360.30710720  .00000000  00000-0  12800-3 0    00
2 40931   6.0006 332.5373 0012733 338.8432   8.1437 14.79075515    01
LILIUM-4                
1 71922C 26067AC  26089.50133053 -.00014632  00000+0 -74472-3 0    04
2 71922  97.4497  49.1617 0004341   5.9603 355.7042 15.16896692    16
